Wind_Speed
36 37 40 40 38 38 36 34 34 34 32 30 28 26 26 27 28 27 26 25 25 25 24 24 23 22 21 20 19 18 18 17 16 16 15 16 16 16 17 18 19 19 20
37 37 38 36 35 37 37 34 33 30 27 25 24 26 27 27 27 27 26 27 27 25 25 24 24 23 22 22 21 20 20 20 19 18 17 17 18 17 18 18 19 20 20
35 34 35 35 36 36 33 32 30 28 27 25 27 27 26 26 28 27 26 26 26 26 26 26 25 24 24 24 23 22 22 22 22 20 19 19 19 19 20 19 19 20 20
32 33 34 33 33 32 33 32 30 28 30 29 27 26 27 27 28 27 27 27 27 26 25 26 26 26 26 26 25 25 24 24 24 23 22 21 20 20 21 21 21 20 20
32 33 34 33 34 33 32 32 31 30 31 30 29 28 28 29 29 29 29 29 28 27 27 27 27 27 28 28 28 28 27 26 26 25 25 24 23 22 21 22 22 21 20
30 32 33 34 35 34 34 34 34 34 33 33 33 33 33 33 33 32 32 31 30 30 29 28 28 29 30 30 31 30 30 29 28 28 27 26 25 24 23 22 23 23 22
28 29 32 34 36 37 38 38 39 38 38 38 39 40 40 39 39 39 38 37 35 34 33 32 32 32 32 33 33 33 33 32 31 30 29 28 27 26 25 24 23 23 23
27 30 33 37 39 41 42 43 45 46 46 47 47 47 47 47 46 46 45 44 42 41 40 38 38 37 36 37 37 37 37 36 34 33 32 31 30 29 28 26 25 24 23
33 36 39 42 43 45 47 49 50 51 51 52 53 53 53 53 53 52 51 50 50 48 47 46 45 44 43 42 42 41 41 40 38 37 35 34 32 31 30 29 27 25 24
40 42 44 46 47 49 51 52 53 54 55 55 56 56 57 57 57 57 57 56 55 54 53 53 52 51 50 48 47 46 45 44 43 41 39 37 35 34 32 31 29 27 25
45 47 49 51 52 53 54 56 57 58 59 60 60 61 61 61 61 61 61 61 60 59 58 57 57 56 55 53 52 50 49 47 46 44 42 40 38 36 35 33 31 29 27
50 52 54 56 57 59 60 61 62 63 64 64 65 65 66 66 66 66 66 66 65 64 63 62 60 59 58 57 56 54 53 51 49 47 46 43 41 38 37 35 33 31 28
54 56 58 60 62 63 65 66 66 67 67 68 68 67 68 68 68 69 69 69 69 68 67 66 65 63 62 60 59 57 55 53 52 50 48 45 43 40 38 36 34 32 30
57 60 62 64 65 66 67 68 68 67 67 66 65 64 63 62 62 63 64 65 67 68 68 69 68 67 66 64 62 60 58 56 54 53 51 48 46 43 40 38 36 34 31
61 63 64 65 66 67 67 66 65 63 61 59 56 53 51 49 49 48 49 51 54 57 60 63 65 67 67 67 66 64 61 59 57 54 53 51 48 46 42 40 37 35 32
62 63 64 66 66 65 63 61 59 56 53 49 46 43 42 40 38 37 36 36 37 40 44 48 53 58 62 65 66 65 64 62 59 57 54 52 50 48 45 41 39 36 33
62 64 64 64 62 60 58 56 53 50 47 44 42 41 39 36 34 32 30 29 29 29 30 33 37 42 48 55 61 64 64 63 62 59 56 53 50 47 45 43 40 38 34
62 62 61 59 57 55 53 51 50 47 45 43 42 41 39 36 34 33 32 32 31 30 29 28 28 30 34 39 45 52 57 60 62 61 59 56 53 50 47 45 42 39 36
62 61 59 57 55 54 53 51 49 47 46 45 44 42 41 39 38 37 36 35 34 32 31 29 29 28 28 31 34 38 43 49 53 57 59 58 55 53 50 46 42 39 36
61 60 58 56 55 53 52 51 50 48 47 46 45 44 42 41 40 39 39 37 36 34 33 31 30 28 28 28 30 32 35 39 44 49 53 55 55 54 51 48 44 40 37
59 58 56 55 54 53 52 51 50 48 47 46 43 42 42 42 41 39 38 37 36 35 33 31 29 27 26 26 26 28 30 33 38 42 47 50 52 52 50 48 45 41 38
56 56 56 54 54 53 52 51 49 48 46 44 42 41 40 41 40 39 38 37 36 34 33 31 29 27 26 24 24 25 27 30 33 37 41 46 49 50 49 47 44 42 38
56 56 56 55 53 52 51 49 47 46 44 42 40 38 37 37 37 37 37 36 35 33 31 30 28 27 25 24 23 22 24 27 30 35 38 43 46 47 46 45 44 41 37
56 56 55 54 52 50 49 47 45 44 41 39 36 35 34 33 33 34 34 34 33 31 30 28 27 26 25 23 22 21 21 24 29 34 36 38 43 46 45 44 43 41 37
56 56 55 53 52 50 48 46 43 40 38 35 32 31 31 30 30 30 30 31 31 30 28 27 26 24 23 22 21 20 20 23 29 33 36 38 43 45 45 43 41 39 35
56 55 53 52 51 49 46 43 39 36 34 32 30 28 27 27 27 26 26 27 27 27 26 26 24 23 22 21 20 19 19 22 28 32 36 38 42 43 43 41 39 37 34
Wind_Direction
285 289 292 294 289 288 285 273 272 274 267 260 258 266 275 277 277 279 280 281 281 276 274 272 268 267 266 265 264 265 267 270 273 278 284 289 294 297 298 297 293 290 285
291 293 295 300 299 296 291 289 287 283 280 276 269 269 273 276 280 282 281 279 279 278 274 269 266 264 264 262 262 265 268 270 271 275 281 286 291 296 298 298 296 294 288
291 295 300 303 303 300 299 299 299 292 295 296 293 282 283 281 281 280 279 280 279 278 275 269 265 263 261 261 261 264 268 270 270 272 276 281 286 291 295 297 297 296 292
288 293 296 300 301 303 304 302 302 303 301 300 297 292 287 284 282 280 280 278 276 275 272 266 263 262 260 260 261 263 266 268 271 273 276 279 282 285 290 295 297 296 294
282 287 291 295 299 302 304 303 302 301 299 298 297 292 290 286 285 283 281 277 273 270 269 265 262 261 260 261 261 261 263 266 269 272 276 279 281 283 286 290 294 296 295
281 284 289 293 298 300 301 301 300 298 296 293 292 291 289 285 284 283 281 279 274 271 268 265 263 261 261 261 261 262 263 264 267 270 272 276 280 282 284 285 290 294 295
285 286 290 294 298 300 300 300 299 298 296 293 291 289 288 286 283 282 280 278 275 272 268 266 264 261 260 260 261 262 263 264 265 267 269 272 275 279 281 283 286 290 292
299 297 297 298 300 301 301 300 299 298 296 294 291 289 287 285 283 281 278 276 274 271 269 267 265 264 262 261 260 260 261 263 264 265 267 269 271 275 278 280 281 284 287
305 303 301 300 300 300 299 298 297 295 294 292 291 289 287 285 283 280 278 275 273 271 268 266 265 264 263 261 260 259 260 261 263 264 265 266 269 271 274 276 278 279 282
305 303 302 302 301 299 298 296 295 293 291 289 288 286 284 283 281 279 277 275 273 270 268 266 264 263 262 261 259 258 259 259 261 262 262 264 265 268 270 273 274 276 278
308 307 307 306 304 301 299 297 295 293 291 289 287 285 283 280 278 277 275 273 272 270 267 265 264 262 261 260 258 257 257 258 258 259 259 261 263 265 267 269 271 273 274
312 311 309 307 305 303 302 300 298 296 293 291 288 285 282 279 277 274 272 271 269 268 266 265 263 262 260 259 257 256 255 256 256 256 257 258 259 261 263 265 268 270 272
313 311 309 308 306 305 303 301 299 297 294 292 289 287 284 281 278 275 272 269 267 265 264 263 262 261 259 258 256 255 254 254 253 253 254 255 256 257 259 261 264 266 268
313 312 310 309 307 305 303 301 299 298 296 294 292 290 287 284 282 278 274 270 267 265 263 261 260 259 258 256 255 253 252 251 250 250 251 252 253 254 255 257 259 261 263
313 312 310 308 307 305 304 302 301 299 298 297 295 293 291 289 286 283 279 274 269 265 262 260 258 257 256 255 254 252 251 249 248 248 248 248 249 250 251 253 254 256 259
313 312 310 309 307 306 305 303 302 301 300 298 296 293 292 290 288 286 283 279 275 271 266 263 260 257 255 253 252 251 250 248 246 245 245 245 246 246 246 248 250 252 255
315 313 311 310 308 307 306 304 303 301 298 296 293 291 289 287 285 282 280 280 280 278 276 272 266 262 258 255 252 250 248 246 244 242 242 242 241 241 242 243 246 248 250
315 314 312 310 308 306 305 303 302 299 297 295 292 288 284 282 279 277 276 276 277 276 276 277 275 270 264 258 253 250 247 244 241 240 238 238 238 238 239 240 242 244 246
318 317 315 313 310 308 306 304 301 298 295 292 289 285 281 278 275 273 273 274 274 273 272 272 273 272 270 264 257 252 247 242 239 237 235 234 234 235 236 236 238 240 242
321 319 317 315 312 309 307 304 301 298 294 292 288 283 280 277 274 271 270 270 270 270 269 269 269 269 269 267 261 253 246 240 236 233 231 230 230 230 231 232 235 236 238
323 321 319 317 314 311 308 306 302 299 296 292 288 283 279 276 273 270 268 267 266 266 266 265 266 266 266 264 261 254 245 237 232 228 225 223 223 224 226 227 230 232 233
326 324 323 321 317 314 311 308 305 302 297 293 289 285 279 275 272 269 266 264 263 261 261 261 261 261 261 261 260 255 246 236 228 221 218 216 216 217 220 222 224 227 228
328 327 325 324 322 318 315 312 309 305 300 295 291 286 281 277 273 268 264 261 259 257 256 256 255 255 255 256 255 253 245 232 221 214 210 209 209 210 213 216 218 221 223
331 330 329 327 326 323 319 316 312 308 304 300 294 287 283 279 274 267 261 257 254 253 251 250 250 250 251 251 250 247 241 228 216 205 201 201 200 203 206 208 212 216 219
335 334 332 331 330 328 325 320 315 312 307 304 298 291 285 279 274 267 259 253 249 247 244 243 244 244 244 244 242 240 237 228 214 204 197 195 194 197 200 202 205 208 210
339 338 337 335 334 334 332 328 323 319 313 306 301 296 289 280 275 267 257 249 243 239 237 236 236 237 236 235 234 233 231 222 212 202 194 192 191 192 193 196 199 201 202
Height
5866 5865 5862 5858 5852 5848 5844 5837 5836 5832 5829 5829 5829 5832 5834 5835 5834 5833 5833 5832 5831 5830 5829 5830 5830 5830 5830 5831 5831 5831 5831 5831 5831 5831 5830 5828 5826 5824 5822 5821 5819 5818 5817
5861 5857 5854 5851 5846 5843 5838 5833 5830 5826 5823 5820 5822 5824 5826 5827 5826 5827 5827 5826 5825 5823 5823 5823 5824 5824 5825 5825 5825 5826 5826 5826 5826 5826 5825 5824 5822 5820 5818 5816 5814 5813 5811
5855 5852 5849 5845 5842 5836 5830 5827 5826 5823 5821 5819 5820 5820 5820 5820 5820 5820 5820 5819 5818 5817 5817 5816 5817 5817 5818 5819 5819 5819 5820 5820 5820 5820 5820 5819 5818 5816 5813 5811 5809 5807 5806
5851 5848 5845 5842 5838 5832 5827 5824 5821 5819 5818 5817 5816 5814 5813 5813 5813 5812 5811 5810 5810 5810 5809 5809 5809 5810 5811 5811 5812 5812 5813 5813 5813 5813 5813 5813 5812 5811 5809 5806 5804 5802 5800
5845 5842 5839 5836 5832 5828 5824 5820 5817 5815 5813 5811 5810 5809 5807 5806 5805 5804 5803 5802 5801 5801 5801 5801 5801 5802 5802 5803 5803 5804 5805 5806 5806 5806 5806 5806 5806 5805 5804 5802 5799 5797 5795
5838 5835 5832 5829 5825 5821 5817 5814 5811 5809 5807 5804 5803 5801 5799 5798 5796 5795 5794 5793 5793 5792 5792 5792 5793 5793 5793 5794 5794 5795 5796 5797 5798 5798 5799 5799 5798 5798 5798 5797 5794 5792 5789
5831 5828 5825 5822 5818 5814 5810 5806 5803 5800 5798 5795 5793 5792 5790 5788 5787 5785 5784 5784 5783 5783 5782 5782 5783 5783 5783 5784 5785 5785 5786 5787 5789 5790 5790 5791 5791 5791 5791 5790 5789 5787 5784
5824 5821 5817 5813 5809 5805 5801 5797 5792 5789 5786 5783 5781 5779 5777 5776 5775 5774 5773 5772 5771 5771 5770 5771 5771 5772 5772 5773 5774 5775 5776 5777 5779 5780 5781 5782 5782 5783 5783 5783 5783 5781 5779
5816 5813 5809 5804 5799 5795 5790 5786 5781 5777 5773 5769 5766 5764 5761 5759 5758 5757 5757 5757 5757 5757 5757 5757 5758 5759 5760 5761 5762 5764 5765 5767 5768 5770 5771 5773 5774 5774 5775 5775 5775 5775 5774
5807 5802 5798 5793 5788 5783 5778 5772 5767 5762 5758 5754 5750 5747 5744 5742 5740 5739 5739 5739 5739 5740 5741 5742 5743 5744 5745 5747 5749 5751 5753 5755 5757 5758 5761 5763 5764 5765 5766 5767 5767 5768 5768
5795 5789 5784 5778 5773 5768 5762 5756 5751 5746 5741 5736 5732 5729 5725 5722 5721 5719 5718 5718 5719 5720 5722 5723 5725 5727 5729 5731 5734 5737 5739 5742 5744 5746 5749 5752 5754 5756 5757 5758 5759 5760 5760
5783 5777 5771 5764 5757 5750 5743 5737 5731 5725 5720 5715 5710 5707 5703 5701 5698 5697 5696 5696 5697 5698 5700 5702 5705 5707 5710 5713 5717 5720 5724 5727 5730 5733 5737 5740 5743 5746 5747 5749 5751 5751 5752
5772 5765 5757 5749 5742 5734 5726 5719 5712 5705 5698 5692 5688 5683 5678 5675 5673 5672 5671 5672 5673 5675 5677 5679 5683 5686 5690 5694 5698 5702 5707 5711 5716 5720 5724 5727 5731 5734 5737 5740 5742 5743 5744
5760 5752 5743 5735 5726 5718 5709 5701 5693 5685 5678 5671 5665 5659 5654 5650 5647 5646 5645 5645 5647 5649 5652 5655 5659 5663 5667 5672 5678 5683 5689 5694 5699 5704 5709 5714 5718 5722 5726 5729 5732 5734 5735
5747 5738 5729 5719 5710 5701 5691 5683 5674 5666 5659 5652 5646 5640 5635 5631 5627 5625 5623 5622 5622 5624 5627 5630 5634 5639 5644 5650 5655 5662 5669 5676 5682 5688 5694 5700 5705 5710 5714 5718 5722 5725 5727
5734 5724 5714 5703 5693 5683 5674 5665 5657 5650 5643 5637 5631 5626 5621 5617 5614 5611 5608 5606 5605 5606 5607 5609 5612 5616 5620 5626 5632 5640 5648 5656 5663 5671 5678 5684 5691 5696 5702 5707 5711 5715 5718
5719 5708 5698 5687 5676 5667 5658 5649 5642 5635 5629 5623 5618 5613 5609 5606 5603 5600 5598 5597 5595 5594 5594 5594 5595 5597 5600 5604 5610 5617 5625 5634 5643 5652 5661 5669 5676 5682 5689 5695 5700 5704 5708
5705 5694 5682 5672 5662 5652 5643 5635 5628 5621 5615 5610 5605 5601 5597 5594 5592 5590 5588 5587 5585 5585 5584 5583 5583 5584 5585 5587 5591 5596 5604 5613 5622 5632 5642 5652 5660 5668 5676 5683 5689 5694 5698
5689 5677 5666 5655 5646 5636 5627 5619 5612 5606 5600 5595 5591 5587 5584 5581 5579 5578 5577 5576 5575 5574 5574 5574 5574 5574 5574 5575 5577 5581 5586 5594 5602 5612 5623 5634 5644 5654 5662 5670 5677 5683 5688
5674 5662 5651 5640 5630 5620 5611 5603 5596 5589 5584 5579 5575 5571 5568 5566 5565 5564 5563 5563 5563 5563 5563 5564 5564 5564 5565 5565 5566 5569 5573 5579 5587 5596 5606 5617 5628 5638 5648 5657 5665 5672 5678
5660 5648 5636 5625 5614 5604 5594 5586 5579 5572 5566 5561 5558 5554 5552 5550 5549 5549 5549 5549 5550 5551 5552 5553 5554 5554 5555 5556 5556 5558 5562 5566 5573 5581 5590 5601 5612 5623 5634 5644 5653 5661 5668
5648 5636 5623 5612 5600 5588 5578 5570 5562 5555 5549 5544 5540 5538 5535 5534 5533 5534 5534 5535 5537 5538 5540 5542 5544 5545 5546 5547 5548 5549 5552 5556 5561 5569 5578 5588 5599 5610 5622 5632 5642 5650 5658
5636 5624 5611 5599 5587 5574 5563 5554 5546 5538 5532 5528 5524 5521 5519 5518 5517 5518 5519 5521 5523 5526 5529 5531 5534 5536 5537 5539 5540 5541 5543 5546 5552 5559 5567 5577 5587 5599 5610 5621 5631 5640 5648
5625 5612 5599 5586 5574 5561 5550 5539 5531 5523 5517 5512 5509 5506 5504 5503 5502 5503 5505 5507 5511 5514 5517 5521 5524 5526 5529 5531 5533 5534 5536 5539 5544 5551 5559 5568 5578 5589 5600 5611 5622 5631 5639
5615 5601 5588 5574 5562 5550 5538 5527 5517 5510 5504 5499 5495 5493 5491 5490 5489 5490 5491 5494 5498 5502 5507 5511 5514 5518 5521 5523 5526 5527 5530 5533 5537 5543 5551 5560 5570 5580 5592 5603 5614 5623 5632
5606 5592 5578 5565 5552 5539 5527 5516 5506 5498 5492 5487 5484 5481 5479 5478 5477 5478 5480 5483 5487 5492 5497 5502 5506 5510 5513 5516 5519 5522 5524 5527 5531 5537 5544 5553 5563 5574 5586 5597 5607 5616 5625